Date String (YYYY-MM-DD hh:mm:ss) UTC,Instrument flags,absolute air pressure of the measurement (hPa),sample flow rate (lpm),inlet stack bypass flow (lpm),air temperature of the measurement (°C),ambient temperature measured by the external sensor (°C),aerosol sample conditioner tube jacket temperature (°C),OPC LED temperature (°C),internal box temperature (°C),relative humidity of the measurement (%),span deviation,mass concentration of particles derived from Lorenz-Mie calculation of OPC scattering (μg/m³),mass concentration of particles derived from Lorenz-Mie calculation of OPC scattering (μg/m³),mass concentration of particles derived from Lorenz-Mie calculation of OPC scattering (μg/m³)
DateTimeUTC,F1_M11,P_M11,Q1_M11,Q2_M11,T1_M11,T2_M11,T3_M11,T4_M11,T5_M11,U1_M11,ZSPAN_M11,X2_M11,X0_M11,X1_M11
2023-10-04 06:00:00,SystemResetWarning,0830.2,4.99,000.00,029.0,027.4,000.0,037.5,030.7,13.0,0000.0,0001.77,0003.39,0001.44
2023-10-04 06:01:00,SystemResetWarning,0830.3,5.00,000.00,029.0,027.5,000.0,037.5,030.7,13.0,0000.0,0001.73,0004.39,0001.43
2023-10-04 06:02:00,SystemResetWarning,0830.3,5.01,000.00,029.0,027.6,000.0,037.5,030.7,13.0,0000.0,0001.72,0004.25,0001.43
2023-10-04 06:03:00,SystemResetWarning,0830.3,5.01,000.00,029.1,027.6,000.0,037.5,030.8,13.0,0000.0,0001.72,0004.25,0001.42
2023-10-04 06:04:00,SystemResetWarning,0830.3,5.00,000.00,029.1,027.7,000.0,037.5,030.8,13.1,0000.0,0001.73,0004.30,0001.41
2023-10-04 06:05:00,SystemResetWarning,0830.2,4.99,000.00,029.1,027.7,000.0,037.5,030.8,13.2,0000.0,0001.73,0004.32,0001.41
2023-10-04 06:06:00,SystemResetWarning,0830.2,5.00,000.00,029.1,027.8,000.0,037.5,030.8,13.2,0000.0,0001.72,0004.33,0001.40
2023-10-04 06:07:00,SystemResetWarning,0830.2,5.00,000.00,029.1,027.8,000.0,037.5,030.8,13.2,0000.0,0001.75,0004.36,0001.40
2023-10-04 06:08:00,SystemResetWarning,0830.2,5.00,000.00,029.1,027.9,000.0,037.5,030.9,13.2,0000.0,0001.74,0004.32,0001.41
2023-10-04 06:09:00,SystemResetWarning,0830.2,5.00,000.00,029.2,027.9,000.0,037.5,030.8,13.3,0000.0,0001.71,0004.26,0001.40
2023-10-04 06:10:00,SystemResetWarning,0830.2,5.00,000.00,029.2,027.9,000.0,037.5,030.9,13.3,0000.0,0001.74,0004.43,0001.41
2023-10-04 06:11:00,SystemResetWarning,0830.2,5.01,000.00,029.2,027.9,000.0,037.6,030.8,13.3,0000.0,0001.75,0003.89,0001.42
2023-10-04 06:12:00,SystemResetWarning,0830.2,5.01,000.00,029.2,027.9,000.0,037.6,030.9,13.3,0000.0,0001.78,0002.71,0001.43
2023-10-04 06:13:00,SystemResetWarning,0830.2,4.99,000.00,029.2,027.9,000.0,037.6,030.9,13.3,0000.0,0001.79,0002.77,0001.43
2023-10-04 06:14:00,SystemResetWarning,0830.2,5.00,000.00,029.2,027.9,000.0,037.6,030.9,13.3,0000.0,0001.82,0003.23,0001.44
2023-10-04 06:15:00,SystemResetWarning,0830.2,4.99,000.00,029.2,027.9,000.0,037.6,030.9,13.3,0000.0,0001.84,0003.50,0001.45
2023-10-04 06:16:00,SystemResetWarning,0830.2,5.00,000.00,029.2,028.0,000.0,037.6,030.9,13.3,0000.0,0001.85,0003.50,0001.46
2023-10-04 06:17:00,SystemResetWarning,0830.2,5.00,000.00,029.2,028.0,000.0,037.6,030.9,13.3,0000.0,0001.82,0004.28,0001.45
2023-10-04 06:18:00,SystemResetWarning,0830.3,5.01,000.00,029.3,028.0,000.0,037.6,030.9,13.3,0000.0,0001.78,0004.22,0001.45
2023-10-04 06:19:00,SystemResetWarning,0830.2,5.01,000.00,029.3,028.0,000.0,037.6,030.9,13.3,0000.0,0001.80,0004.30,0001.44
2023-10-04 06:20:00,SystemResetWarning,0830.2,5.00,000.00,029.3,028.0,000.0,037.6,030.9,13.4,0000.0,0001.84,0004.38,0001.46
2023-10-04 06:21:00,SystemResetWarning,0830.3,5.00,000.00,029.3,028.0,000.0,037.6,030.9,13.4,0000.0,0001.89,0004.46,0001.47
2023-10-04 06:22:00,SystemResetWarning,0830.2,5.00,000.00,029.3,028.0,000.0,037.7,030.9,13.5,0000.0,0001.92,0004.56,0001.47
2023-10-04 06:23:00,SystemResetWarning,0830.2,5.00,000.00,029.3,028.0,000.0,037.7,031.0,13.5,0000.0,0001.91,0004.66,0001.48
2023-10-04 06:24:00,SystemResetWarning,0830.2,5.00,000.00,029.3,028.0,000.0,037.7,031.0,13.5,0000.0,0001.95,0005.05,0001.48
2023-10-04 06:25:00,SystemResetWarning,0830.3,5.00,000.00,029.3,028.0,000.0,037.7,031.0,13.5,0000.0,0001.98,0006.03,0001.49
2023-10-04 06:26:00,SystemResetWarning,0830.3,5.01,000.00,029.3,028.0,000.0,037.7,031.0,13.5,0000.0,0001.98,0006.57,0001.49
2023-10-04 06:27:00,SystemResetWarning,0830.2,5.01,000.00,029.3,028.0,000.0,037.7,031.0,13.6,0000.0,0001.99,0006.83,0001.48
2023-10-04 06:28:00,SystemResetWarning,0830.2,5.01,000.00,029.4,028.0,000.0,037.7,031.0,13.6,0000.0,0002.03,0006.38,0001.49
2023-10-04 06:29:00,SystemResetWarning,0830.2,5.01,000.00,029.4,028.0,000.0,037.7,031.0,13.6,0000.0,0002.05,0006.21,0001.49
2023-10-04 06:30:00,SystemResetWarning,0830.2,5.00,000.00,029.4,028.1,000.0,037.7,031.0,13.7,0000.0,0002.07,0006.24,0001.49
2023-10-04 06:31:00,SystemResetWarning,0830.2,4.99,000.00,029.4,028.1,000.0,037.8,031.0,13.7,0000.0,0002.07,0006.23,0001.49
2023-10-04 06:32:00,SystemResetWarning,0830.1,5.00,000.00,029.4,028.1,000.0,037.8,031.0,13.7,0000.0,0002.08,0006.17,0001.48
2023-10-04 06:33:00,SystemResetWarning,0830.1,5.00,000.00,029.4,028.1,000.0,037.8,031.0,13.7,0000.0,0002.06,0006.07,0001.48
2023-10-04 06:34:00,SystemResetWarning,0830.1,5.00,000.00,029.4,028.1,000.0,037.8,031.0,13.6,0000.0,0002.07,0006.00,0001.48
2023-10-04 06:35:00,SystemResetWarning,0830.1,5.00,000.00,029.4,028.1,000.0,037.8,031.0,13.6,0000.0,0002.07,0005.97,0001.49
2023-10-04 06:36:00,SystemResetWarning,0830.1,5.00,000.00,029.4,028.1,000.0,037.8,031.0,13.6,0000.0,0002.00,0004.58,0001.48
2023-10-04 06:37:00,SystemResetWarning,0830.1,5.00,000.00,029.4,028.1,000.0,037.8,031.0,13.5,0000.0,0002.02,0004.60,0001.49
2023-10-04 06:38:00,SystemResetWarning,0830.2,5.01,000.00,029.4,028.1,000.0,037.8,031.0,13.5,0000.0,0002.08,0005.50,0001.51
2023-10-04 06:39:00,SystemResetWarning,0830.1,5.00,000.00,029.4,028.1,000.0,037.8,031.1,13.5,0000.0,0002.10,0005.50,0001.52
2023-10-04 06:40:00,SystemResetWarning,0830.1,4.99,000.00,029.4,028.1,000.0,037.8,031.0,13.6,0000.0,0002.12,0005.57,0001.53
2023-10-04 06:41:00,SystemResetWarning,0830.2,5.00,000.00,029.4,028.1,000.0,037.8,031.0,13.6,0000.0,0002.12,0005.68,0001.54
2023-10-04 06:42:00,SystemResetWarning,0830.2,5.00,000.00,029.4,028.1,000.0,037.8,031.1,13.6,0000.0,0002.11,0005.77,0001.55
2023-10-04 06:43:00,SystemResetWarning,0830.2,5.00,000.00,029.4,028.1,000.0,037.8,031.1,13.7,0000.0,0002.08,0005.67,0001.56
2023-10-04 06:44:00,SystemResetWarning,0830.3,5.00,000.00,029.4,028.1,000.0,037.8,031.1,13.7,0000.0,0002.10,0006.38,0001.59
2023-10-04 06:45:00,SystemResetWarning,0830.2,5.00,000.00,029.4,028.1,000.0,037.8,031.1,13.7,0000.0,0002.11,0006.37,0001.61
2023-10-04 06:46:00,SystemResetWarning,0830.2,5.01,000.00,029.5,028.1,000.0,037.9,031.1,13.7,0000.0,0002.15,0006.42,0001.62
2023-10-04 06:47:00,SystemResetWarning,0830.2,5.00,000.00,029.5,028.1,000.0,037.9,031.1,13.7,0000.0,0002.16,0006.48,0001.64
2023-10-04 06:48:00,SystemResetWarning,0830.3,5.00,000.00,029.5,028.1,000.0,037.9,031.0,13.7,0000.0,0002.17,0006.31,0001.67
2023-10-04 06:49:00,SystemResetWarning,0830.3,5.00,000.00,029.5,028.1,000.0,037.9,031.0,13.8,0000.0,0002.14,0004.45,0001.67
2023-10-04 06:50:00,SystemResetWarning,0830.3,4.99,000.00,029.4,028.1,000.0,037.9,031.0,13.8,0000.0,0002.11,0004.25,0001.66
2023-10-04 06:51:00,SystemResetWarning,0830.3,5.00,000.00,029.4,028.1,000.0,037.9,031.0,13.8,0000.0,0002.10,0004.92,0001.68
2023-10-04 06:52:00,SystemResetWarning,0830.3,5.00,000.00,029.4,028.1,000.0,037.9,031.0,13.8,0000.0,0002.15,0006.22,0001.70
2023-10-04 06:53:00,SystemResetWarning,0830.3,4.99,000.00,029.4,028.1,000.0,037.9,031.0,13.8,0000.0,0002.16,0006.60,0001.72
2023-10-04 06:54:00,SystemResetWarning,0830.3,5.00,000.00,029.4,028.0,000.0,037.9,031.0,13.8,0000.0,0002.17,0006.76,0001.73
2023-10-04 06:55:00,SystemResetWarning,0830.4,5.00,000.00,029.4,026.5,000.0,037.8,030.9,13.8,0000.0,0002.18,0006.41,0001.73
2023-10-04 06:56:00,SystemResetWarning,0830.3,5.00,000.00,029.3,024.8,000.0,037.7,030.7,13.8,0000.0,0002.18,0006.18,0001.72
2023-10-04 06:57:00,SystemResetWarning,0830.3,5.01,000.00,029.2,024.5,000.0,037.7,030.4,13.9,0000.0,0002.17,0006.23,0001.72
2023-10-04 06:58:00,SystemResetWarning,0830.3,5.01,000.00,029.0,024.8,000.0,037.7,030.2,14.0,0000.0,0002.17,0006.28,0001.73
2023-10-04 06:59:00,SystemResetWarning,0830.3,5.00,000.00,028.9,025.2,000.0,037.6,030.2,14.0,0000.0,0002.16,0006.46,0001.72
